Home   Weather   Potosi   Past weeks

Flag for Bolivia Past Weather in Potosi, Bolivia — Yesterday and Last 2 Weeks

Now
72 °F

Passing clouds.


Feels Like: 65 °F
Forecast: 37 / 58 °F
Wind: 3 mph from Southeast

Location: Viru-Viru

Current Time: Jan 21, 2017 at 4:45:33 am

Latest Report: Jan 21, 2017 at 4:00 am


Visibility: N/A

Pressure: 29.89 "Hg (18.83 "Hg at 3993m altitude)

Humidity: 100%

Dew Point: 72 °F

Location of PotosiLocation

Past Weather in Potosi — Graph

°F

Potosi Temperature Yesterday

Maximum temperature yesterday: 99 °F (at 3:00 pm)
Minimum temperature yesterday: 73 °F (at 2:00 am)
Average temperature yesterday: 84 °F

High & Low Weather Summary for the Past Weeks

 TemperatureHumidityPressure
High99 °F (Jan 20, 3:00 pm)100% (Jan 6, 5:00 am)29.95 "Hg (Jan 6, 5:00 am)
Low68 °F (Jan 18, 7:14 pm)33% (Jan 20, 3:00 pm)29.62 "Hg (Jan 15, 4:00 pm)
Average81 °F77%29.82 "Hg
* Reported Jan 6 3:00 am — Jan 21 3:00 am, Potosi, Weather by CustomWeather, © 2017

Note: Actual official high and low records may vary slightly from our data, if they occured in-between our weather recording intervals... More about our weather records

Advertising

Potosi Weather History for the Previous 24 Hours

Scroll right to see more
 ConditionsComfort  
Time TempWeatherWind HumidityBarometerVisibility
3:00 am
Sat, Jan 21
73 °FPassing clouds.2 mph94%29.89 "HgN/A
2:00 am73 °FPartly cloudy.3 mph94%29.86 "HgN/A
1:00 am75 °FPartly cloudy.3 mph89%29.89 "HgN/A
12:00 am79 °FPartly cloudy.3 mph84%29.92 "HgN/A
11:00 pm
Fri, Jan 20
79 °FPassing clouds.No wind84%29.92 "HgN/A
10:00 pm81 °FPassing clouds.6 mph79%29.89 "HgN/A
9:00 pm81 °FPartly cloudy.6 mph84%29.83 "HgN/A
8:00 pm84 °FPassing clouds.3 mph66%29.80 "HgN/A
7:00 pm84 °FPassing clouds.5 mph66%29.77 "HgN/A
6:00 pm91 °FBroken clouds.5 mph49%29.74 "HgN/A
5:00 pm93 °FPartly sunny.9 mph44%29.74 "HgN/A
4:00 pm99 °FScattered clouds.13 mph33%29.74 "HgN/A
3:00 pm99 °FScattered clouds.13 mph33%29.77 "HgN/A
2:00 pm97 °FScattered clouds.10 mph37%29.83 "HgN/A
1:00 pm93 °FPartly sunny.12 mph44%29.86 "HgN/A
12:00 pm93 °FScattered clouds.9 mph44%29.89 "HgN/A
11:00 am91 °FScattered clouds.10 mph46%29.92 "HgN/A
10:00 am90 °FScattered clouds.9 mph49%29.95 "HgN/A
9:00 am88 °FScattered clouds.8 mph46%29.95 "HgN/A
8:00 am84 °FPartly sunny.7 mph48%29.92 "HgN/A
7:00 am79 °FScattered clouds.5 mph61%29.89 "HgN/A
6:00 am73 °FScattered clouds.5 mph83%29.89 "HgN/A
5:00 am73 °FClear.5 mph89%29.86 "HgN/A
4:00 am75 °FPassing clouds.3 mph83%29.86 "HgN/A
Weather by CustomWeather, © 2017

See weather overviewHow to use our weather pages